EW8716 Weather Reports


time (UTC)temp
C
wind
direction
speed
KPH
gust
KPH
rain 1hr
cm
rain 24hr
cm
rain mn
cm
humidity
%
barometer
mb
20260506073102 7 330 0.0 0.0 0.00 0.00 0.00 63 1015.4
20260506072845 7 110 0.0 0.0 0.00 0.00 0.00 63 1015.5
20260506072102 7 110 0.0 0.0 0.00 0.00 0.00 63 1015.5
20260506071602 7 191 0.0 0.0 0.00 0.00 0.00 63 1015.5
20260506071102 6 191 0.0 0.0 0.00 0.00 0.00 63 1015.5
20260506070603 6 191 0.0 0.0 0.00 0.00 0.00 64 1015.5
20260506070106 6 192 0.0 0.0 0.00 0.00 0.00 64 1015.4
20260506062103 5 192 0.0 0.0 0.00 0.00 0.00 65 1015.3
20260506061602 5 192 0.0 0.0 0.00 0.00 0.00 65 1015.3
20260506061103 5 192 0.0 0.0 0.00 0.00 0.00 65 1015.3
20260506060602 4 192 0.0 0.0 0.00 0.00 0.00 65 1015.2
20260506051103 3 147 0.0 0.0 0.00 0.00 0.00 66 1015.4
20260506050603 3 147 0.0 0.0 0.00 0.00 0.00 66 1015.4
20260506045102 3 146 0.0 0.0 0.00 0.00 0.00 66 1015.3
20260506044603 3 146 0.0 0.0 0.00 0.00 0.00 66 1015.3
20260506044103 3 146 0.0 0.0 0.00 0.00 0.00 66 1015.3
20260506043604 3 146 0.0 0.0 0.00 0.00 0.00 66 1015.3
20260506043102 3 144 0.0 0.0 0.00 0.00 0.00 66 1015.2
20260506042603 3 144 0.0 0.0 0.00 0.00 0.00 66 1015.2
20260506042104 3 144 0.0 0.0 0.00 0.00 0.00 66 1015.2
20260506041603 3 144 0.0 0.0 0.00 0.00 0.00 66 1015.2
20260506041104 3 144 0.0 0.0 0.00 0.00 0.00 66 1015.2
20260506040842 3 144 0.0 0.0 0.00 0.00 0.00 66 1015.2
20260506040105 3 144 0.0 0.0 0.00 0.00 0.00 66 1015.3
20260506035602 3 143 0.0 0.0 0.00 0.00 0.00 66 1015.3
20260506035341 3 143 0.0 0.0 0.00 0.00 0.00 66 1015.2
20260506034842 3 143 0.0 0.0 0.00 0.00 0.00 66 1015.2
20260506034103 3 143 0.0 0.0 0.00 0.00 0.00 66 1015.3
20260506033603 3 143 0.0 0.0 0.00 0.00 0.00 66 1015.3
20260506033344 3 143 0.0 0.0 0.00 0.00 0.00 66 1015.3
20260506032603 3 143 0.0 0.0 0.00 0.00 0.00 66 1015.4
20260506032103 3 143 0.0 0.0 0.00 0.00 0.00 66 1015.4
20260506031602 3 143 0.0 0.0 0.00 0.00 0.00 66 1015.4
20260506031131 3 143 0.0 0.0 0.00 0.00 0.00 65 1015.4
20260506031121 3 143 0.0 0.0 0.00 0.00 0.00 65 1015.5
20260506030104 3 143 0.0 0.0 0.00 0.00 0.00 66 1015.5
20260506025602 3 143 0.0 0.0 0.00 0.00 0.00 66 1015.5
20260506025344 3 143 0.0 0.0 0.00 0.00 0.00 66 1015.5
20260506024602 3 143 0.0 0.0 0.00 0.00 0.00 66 1015.5
20260506024341 3 143 0.0 0.0 0.00 0.00 0.00 66 1015.6
20260506023603 3 143 0.0 0.0 0.00 0.00 0.00 66 1015.5
20260506023101 3 143 0.0 0.0 0.00 0.00 0.00 65 1015.4
20260506022604 4 143 0.0 0.0 0.00 0.00 0.00 65 1015.4
20260506022103 4 143 0.0 0.0 0.00 0.00 0.00 65 1015.4
20260506021844 4 143 0.0 0.0 0.00 0.00 0.00 65 1015.4
20260506021124 4 143 0.0 0.0 0.00 0.00 0.00 65 1015.5
20260506021117 4 143 0.0 0.0 0.00 0.00 0.00 65 1015.4
20260506020345 4 143 0.0 0.0 0.00 0.00 0.00 65 1015.5
20260506015603 4 143 0.0 0.0 0.00 0.00 0.00 65 1015.6
20260506015102 4 143 0.0 0.0 0.00 0.00 0.00 65 1015.7
20260506014839 4 143 0.0 0.0 0.00 0.00 0.00 65 1015.7
20260506014100 4 143 0.0 0.0 0.00 0.00 0.00 65 1015.8
20260506013559 4 143 0.0 0.0 0.00 0.00 0.00 65 1015.9
20260506013100 4 143 0.0 0.0 0.00 0.00 0.00 65 1015.8
20260506012601 4 143 0.0 0.0 0.00 0.00 0.00 65 1015.8
20260506012059 4 143 0.0 0.0 0.00 0.00 0.00 65 1015.9
20260506011558 4 143 0.0 0.0 0.00 0.00 0.00 65 1015.9
20260506011100 4 143 0.0 0.0 0.00 0.00 0.00 65 1015.9
20260506010559 4 143 0.0 0.0 0.00 0.00 0.00 65 1016.0
20260506010059 4 143 0.0 0.0 0.00 0.00 0.00 65 1015.9
20260506005557 4 143 0.0 0.0 0.00 0.00 0.00 65 1015.9
20260506005336 4 143 0.0 0.0 0.00 0.00 0.00 65 1016.0
20260506004559 4 143 0.0 0.0 0.00 0.00 0.00 65 1016.0
20260506004057 4 143 0.0 0.0 0.00 0.00 0.00 65 1016.0
20260506003835 4 143 0.0 0.0 0.00 0.00 0.00 65 1015.9
20260506003053 5 143 0.0 0.0 0.00 0.00 0.00 65 1016.0
20260506002552 5 143 0.0 0.0 0.00 0.00 0.00 65 1016.0
20260506002330 5 143 0.0 0.0 0.00 0.00 0.00 65 1016.0
20260506001549 5 143 0.0 0.0 0.00 0.00 0.00 65 1015.9
20260506001051 5 143 0.0 0.0 0.00 0.00 0.00 65 1015.9
20260506000545 5 143 0.0 0.0 0.00 0.00 0.00 64 1015.9
20260506000038 5 143 0.0 0.0 0.00 0.00 0.00 64 1015.9
20260505235817 5 143 0.0 0.0 0.00 0.00 0.00 64 1015.9
20260505235037 5 143 0.0 0.0 0.00 0.00 0.00 64 1016.0
20260505234815 5 143 0.0 0.0 0.00 0.00 0.00 64 1016.0
20260505234314 5 143 0.0 0.0 0.00 0.00 0.00 64 1016.0
20260505233533 5 143 0.0 0.0 0.00 0.00 0.00 64 1016.0
20260505233031 5 143 0.0 0.0 0.00 0.00 0.00 64 1016.0
20260505232532 5 143 0.0 0.0 0.00 0.00 0.00 64 1016.1
20260505232031 5 143 0.0 0.0 0.00 0.00 0.00 64 1016.0
20260505231533 5 143 0.0 0.0 0.00 0.00 0.00 64 1016.1
20260505231313 5 143 0.0 0.0 0.00 0.00 0.00 64 1016.1
20260505230531 5 143 0.0 0.0 0.00 0.00 0.00 64 1016.1
20260505230033 5 143 0.0 0.0 0.00 0.00 0.00 64 1016.1
20260505225532 5 143 0.0 0.0 0.00 0.00 0.00 64 1016.2
20260505225033 5 143 0.0 0.0 0.00 0.00 0.00 64 1016.1
20260505224532 5 143 0.0 0.0 0.00 0.00 0.00 64 1016.0
20260505224033 5 143 0.0 0.0 0.00 0.00 0.00 63 1016.1
20260505223533 6 143 0.0 0.0 0.00 0.00 0.00 64 1016.1
20260505223031 6 143 0.0 0.0 0.00 0.00 0.00 63 1016.3
20260505222532 6 143 0.0 0.0 0.00 0.00 0.00 63 1016.3
20260505222033 6 143 0.0 0.0 0.00 0.00 0.00 63 1016.2
20260505221532 6 143 0.0 0.0 0.00 0.00 0.00 63 1016.3
20260505221032 6 143 0.0 0.0 0.00 0.00 0.00 63 1016.2
20260505220534 6 143 0.0 0.0 0.00 0.00 0.00 63 1016.3
20260505220330 6 143 0.0 0.0 0.00 0.00 0.00 63 1016.3
20260505215529 6 143 0.0 0.0 0.00 0.00 0.00 63 1016.3
20260505215031 6 143 0.0 0.0 0.00 0.00 0.00 63 1016.3
20260505214526 6 143 0.0 0.0 0.00 0.00 0.00 62 1016.2
20260505214028 6 143 0.0 0.0 0.00 0.00 0.00 62 1016.1
20260505213525 6 143 0.0 0.0 0.00 0.00 0.00 62 1016.2
20260505213023 6 143 0.0 0.0 0.00 0.00 0.00 62 1016.2
20260505212525 6 143 0.0 0.0 0.00 0.00 0.00 62 1016.2
20260505212023 6 143 0.0 0.0 0.00 0.00 0.00 62 1016.1
20260505211524 6 143 0.0 0.0 0.00 0.00 0.00 62 1016.3
20260505211023 6 143 0.0 0.0 0.00 0.00 0.00 62 1016.2
20260505210519 6 143 0.0 0.0 0.00 0.00 0.00 62 1016.1
20260505210020 6 143 0.0 0.0 0.00 0.00 0.00 62 1016.1
20260505205759 6 143 0.0 0.0 0.00 0.00 0.00 62 1016.1
20260505205017 6 143 0.0 0.0 0.00 0.00 0.00 62 1016.1
20260505204518 7 143 0.0 0.0 0.00 0.00 0.00 62 1016.1
20260505204018 7 143 0.0 0.0 0.00 0.00 0.00 62 1016.1
20260505203803 7 143 0.0 0.0 0.00 0.00 0.00 62 1016.2
20260505203016 7 143 0.0 0.0 0.00 0.00 0.00 62 1016.2
20260505202518 7 143 0.0 0.0 0.00 0.00 0.00 61 1016.1
20260505202017 7 190 0.0 0.0 0.00 0.00 0.00 61 1016.2
20260505201515 7 124 0.0 0.0 0.00 0.00 0.00 61 1016.2
20260505201013 7 123 0.0 0.0 0.00 0.00 0.00 61 1016.1
20260505200514 7 123 0.0 0.0 0.00 0.00 0.00 61 1016.2
20260505200015 7 164 0.0 0.0 0.00 0.00 0.00 61 1016.2
20260505195508 7 164 0.0 0.0 0.00 0.00 0.00 61 1016.1
20260505195250 7 165 0.0 0.0 0.00 0.00 0.00 61 1016.0
20260505194504 7 165 0.0 0.0 0.00 0.00 0.00 61 1016.0
20260505194006 7 167 0.0 0.0 0.00 0.00 0.00 61 1016.0
20260505193504 7 168 0.0 0.0 0.00 0.00 0.00 61 1016.0
20260505193005 7 155 0.0 0.0 0.00 0.00 0.00 61 1015.9
20260505192504 7 161 0.0 0.0 0.00 0.00 0.00 60 1016.0
20260505192005 7 115 0.0 0.0 0.00 0.00 0.00 60 1015.9
20260505191504 7 134 0.0 0.0 0.00 0.00 0.00 60 1015.9
20260505191002 7 159 0.0 0.0 0.00 0.00 0.00 60 1015.9
20260505190504 7 130 0.0 0.0 0.00 0.00 0.00 60 1015.8
20260505190004 7 171 0.0 0.0 0.00 0.00 0.00 60 1015.8
20260505185505 7 128 0.0 0.0 0.00 0.00 0.00 60 1015.8
20260505185004 7 150 0.0 0.0 0.00 0.00 0.00 59 1015.8
20260505184503 7 169 0.0 0.0 0.00 0.00 0.00 59 1015.8
20260505184003 7 148 0.0 0.0 0.00 0.00 0.00 59 1015.8
20260505183502 7 119 0.0 0.0 0.00 0.00 0.00 59 1015.8
20260505183002 8 169 0.0 0.0 0.00 0.00 0.00 59 1015.7
20260505182504 8 129 0.0 0.0 0.00 0.00 0.00 59 1015.7
20260505182004 8 128 0.0 0.0 0.00 0.00 0.00 59 1015.8
20260505181537 8 355 0.0 0.0 0.00 0.00 0.00 59 1015.7
20260505181526 8 147 0.0 0.0 0.00 0.00 0.00 59 1015.7
20260505180502 8 134 0.0 0.0 0.00 0.00 0.00 58 1015.7
20260505180002 8 167 0.0 0.0 0.00 0.00 0.00 59 1015.7
20260505175505 8 178 0.0 0.0 0.00 0.00 0.00 59 1015.6
20260505175002 8 183 0.0 0.0 0.00 0.00 0.00 59 1015.6
20260505174502 8 153 0.0 0.0 0.00 0.00 0.00 59 1015.6
20260505174003 8 146 0.0 0.0 0.00 0.00 0.00 58 1015.6
20260505173501 8 150 0.0 0.0 0.00 0.00 0.00 58 1015.6
20260505173003 8 178 0.0 0.0 0.00 0.00 0.00 59 1015.7
20260505172544 8 139 0.0 0.0 0.00 0.00 0.00 59 1015.7
20260505172530 8 145 0.0 0.0 0.00 0.00 0.00 59 1015.7
20260505171504 8 5 0.0 0.0 0.00 0.00 0.00 59 1015.7
20260505171004 8 11 0.0 0.0 0.00 0.00 0.00 59 1015.7
20260505170502 8 296 0.0 0.0 0.00 0.00 0.00 59 1015.7
20260505170003 8 5 0.0 0.0 0.00 0.00 0.00 59 1015.7
20260505165502 8 19 0.0 0.0 0.00 0.00 0.00 59 1015.7
20260505165002 8 111 0.0 0.0 0.00 0.00 0.00 58 1015.6
20260505164505 8 169 0.0 0.0 0.00 0.00 0.00 59 1015.6
20260505164002 8 137 0.0 0.0 0.00 0.00 0.00 59 1015.5
20260505163502 8 138 0.0 0.0 0.00 0.00 0.00 59 1015.6
20260505163003 9 109 0.0 0.0 0.00 0.00 0.00 59 1015.6
20260505162504 9 139 0.0 0.0 0.00 0.00 0.00 59 1015.6
20260505162004 9 125 0.0 0.0 0.00 0.00 0.00 59 1015.5
20260505161503 9 158 0.0 0.0 0.00 0.00 0.00 59 1015.5
20260505161003 9 121 0.0 0.0 0.00 0.00 0.00 59 1015.5
20260505160502 9 28 0.0 0.0 0.00 0.00 0.00 59 1015.5
20260505153003 9 355 0.0 0.0 0.00 0.00 0.00 59 1015.4
20260505152504 10 174 0.0 0.0 0.00 0.00 0.00 59 1015.5
20260505152249 10 351 0.0 0.0 0.00 0.00 0.00 59 1015.4
20260505151502 10 117 0.0 0.0 0.00 0.00 0.00 59 1015.4
20260505151003 10 144 0.0 0.0 0.00 0.00 0.00 60 1015.4
20260505150504 9 139 0.0 0.0 0.00 0.00 0.00 60 1015.4
20260505150251 9 34 0.0 0.0 0.00 0.00 0.00 60 1015.5
20260505140503 9 99 0.0 0.0 0.00 0.00 0.00 61 1015.3
20260505125003 9 130 0.0 0.0 0.00 0.00 0.00 61 1015.1
20260505124502 9 215 0.0 0.0 0.00 0.00 0.00 61 1015.1
20260505124002 9 351 0.0 0.0 0.00 0.00 0.00 61 1015.0
20260505123753 9 355 0.0 0.0 0.00 0.00 0.00 61 1014.9
20260505123002 9 135 0.0 0.0 0.00 0.00 0.00 61 1014.9
20260505122502 9 225 0.0 0.0 0.00 0.00 0.00 60 1014.9
20260505122002 10 182 0.0 0.0 0.00 0.00 0.00 60 1015.0
20260505121503 10 171 0.0 0.0 0.00 0.00 0.00 60 1014.9
20260505121004 10 318 0.0 0.0 0.00 0.00 0.00 60 1014.8
20260505120750 10 158 0.0 0.0 0.00 0.00 0.00 60 1014.8
20260505120003 10 96 0.0 0.0 0.00 0.00 0.00 60 1014.8
20260505115503 11 314 0.0 0.0 0.00 0.00 0.00 59 1014.7
20260505115001 11 9 0.0 0.0 0.00 0.00 0.00 60 1014.8
20260505114502 11 161 0.0 0.0 0.00 0.00 0.00 59 1014.7
20260505114003 11 132 0.0 0.0 0.00 0.00 0.00 59 1014.7
20260505113749 11 29 0.0 0.0 0.00 0.00 0.00 59 1014.6
20260505113330 11 149 0.0 0.0 0.00 0.00 0.00 60 1014.4
20260505113028 11 340 0.0 0.0 0.00 0.00 0.00 60 1014.6
20260505112043 10 345 0.0 0.0 0.00 0.00 0.00 61 1014.4
20260505112030 11 154 0.0 0.0 0.00 0.00 0.00 61 1014.5
20260505111041 10 53 0.0 0.0 0.00 0.00 0.00 60 1014.4
20260505111028 10 338 0.0 0.0 0.00 0.00 0.00 61 1014.4
20260505102002 12 240 0.0 0.0 0.00 0.00 0.00 58 1014.0
20260505101503 12 5 0.0 0.0 0.00 0.00 0.00 58 1014.1
20260505101245 12 298 0.0 0.0 0.00 0.00 0.00 58 1014.0
20260505100504 12 32 0.0 0.0 0.00 0.00 0.00 59 1014.0
20260505100002 12 63 0.0 0.0 0.00 0.00 0.00 59 1014.0
20260505095503 12 34 0.0 0.0 0.00 0.00 0.00 59 1014.0
20260505095003 12 291 0.0 0.0 0.00 0.00 0.00 59 1013.9
20260505094501 12 44 0.0 0.0 0.00 0.00 0.00 59 1013.9
20260505094003 12 81 0.0 0.0 0.00 0.00 0.00 59 1013.9
20260505093503 12 48 0.0 0.0 0.00 0.00 0.00 59 1013.8
20260505093004 12 270 0.0 0.0 0.00 0.00 0.00 59 1013.8
20260505092501 12 88 0.0 0.0 0.00 0.00 0.00 59 1013.8
20260505092003 12 36 0.0 0.0 0.00 0.00 0.00 60 1013.8
20260505091502 11 31 0.0 0.0 0.00 0.00 0.00 60 1013.8
20260505091002 11 19 0.0 0.0 0.00 0.00 0.00 60 1013.7
20260505090747 11 26 0.0 0.0 0.00 0.00 0.00 60 1013.6
20260505090002 11 44 0.0 0.0 0.00 0.00 0.00 60 1013.6
20260505085503 11 15 0.0 0.0 0.00 0.00 0.00 60 1013.6
20260505085244 11 58 0.0 0.0 0.00 0.00 0.00 60 1013.6
20260505084747 11 355 0.0 0.0 0.00 0.00 0.00 60 1013.6
20260505084004 11 40 0.0 0.0 0.00 0.00 0.00 60 1013.6
20260505083503 11 46 0.0 0.0 0.00 0.00 0.00 60 1013.6
20260505083003 11 47 0.0 0.0 0.00 0.00 0.00 60 1013.6
20260505082746 11 38 0.0 0.0 0.00 0.00 0.00 60 1013.5
20260505082002 12 37 0.0 0.0 0.00 0.00 0.00 60 1013.4
20260505081503 12 21 0.0 0.0 0.00 0.00 0.00 60 1013.4
20260505081003 12 53 0.0 0.0 0.00 0.00 0.00 60 1013.3
20260505080504 11 84 0.0 0.0 0.00 0.00 0.00 60 1013.4
20260505080003 11 317 0.0 0.0 0.00 0.00 0.00 60 1013.3
20260505075502 11 115 0.0 0.0 0.00 0.00 0.00 61 1013.2
20260505075004 11 44 0.0 0.0 0.00 0.00 0.00 61 1013.2
20260505074503 11 9 0.0 0.0 0.00 0.00 0.00 61 1013.1
20260505074001 10 266 0.0 0.0 0.00 0.00 0.00 62 1013.0
20260505073501 10 5 0.0 0.0 0.00 0.00 0.00 62 1013.1